Tracking 25693 objects as of 1-Jul-2022
HD Live streaming from Space Station
objects crossing your sky now

FENGYUN 1C DEB

Track FENGYUN 1C DEB now!
10-day predictions


NORAD ID: 33666
Int'l Code: 1999-025DFB
Perigee: 625.4 km
Apogee: 721.0 km
Inclination: 98.9 °
Period: 98.1 minutes
Semi major axis: 7044 km
RCS: 0.0116 m2 (small)
Launch date: May 10, 1999
Source: People's Republic of China (PRC)
Launch site: Taiyaun Space Center, China (TSC)

Note: This is SATELLITE DEBRIS
aabbcc
Your satellite tracking list
Your tracking list is empty




NASA's NSSDC Master Catalog

Two Line Element Set (TLE):
1 33666U 99025DFB 22181.25923654  .00002887  00000-0  49192-3 0  9992
2 33666  98.8911 179.0716 0067872 255.7920 116.6558 14.68440379480261
Source of the keplerian elements: AFSPC